This is the latest recevied weather packets stored in our database for station/object SP9KB-13. If no packets are shown the sender has not sent any weather packets the latest 10 day(s).
| Time | Temp. | Humidity | Pressure | Rain* | Wind** | Luminosity | Snow |
|---|---|---|---|---|---|---|---|
| 1777276655 | 10.56° C | 35% | 1004 hPa | 0 mm | - | - | - |
| 1777276354 | 10.56° C | 34% | 1004.1 hPa | 0 mm | - | - | - |
| 1777276053 | 11.11° C | 35% | 1004.2 hPa | 0 mm | - | - | - |
| 1777275753 | 10° C | 36% | 1004.3 hPa | 0 mm | - | - | - |
| 1777275452 | 9.44° C | 36% | 1004.3 hPa | 0 mm | - | - | - |
| 1777275152 | 9.44° C | 38% | 1004.3 hPa | 0 mm | - | - | - |
| 1777274851 | 9.44° C | 36% | 1004.2 hPa | 0 mm | - | - | - |
| 1777274550 | 8.89° C | 38% | 1004.5 hPa | 0 mm | - | - | - |
| 1777274250 | 9.44° C | 35% | 1004.5 hPa | 0 mm | - | - | - |
| 1777273950 | 9.44° C | 35% | 1004.4 hPa | 0 mm | - | - | - |
| 1777273649 | 9.44° C | 34% | 1004.5 hPa | 0 mm | - | - | - |
| 1777273348 | 8.33° C | 35% | 1004.4 hPa | 0 mm | - | - | - |
| 1777273048 | 8.33° C | 36% | 1004.4 hPa | 0 mm | - | - | - |
| 1777272746 | 8.33° C | 36% | 1004.4 hPa | 0 mm | - | - | - |
| 1777272446 | 7.78° C | 37% | 1004.4 hPa | 0 mm | - | - | - |
| 1777272145 | 7.22° C | 35% | 1004.6 hPa | 0 mm | - | - | - |
| 1777271844 | 6.67° C | 40% | 1004.6 hPa | 0 mm | - | - | - |
| 1777271544 | 6.67° C | 37% | 1004.7 hPa | 0 mm | - | - | - |
| 1777271243 | 6.67° C | 41% | 1004.8 hPa | 0 mm | - | - | - |
| 1777270943 | 6.67° C | 36% | 1004.7 hPa | 0 mm | - | - | - |
| 1777270642 | 6.11° C | 37% | 1004.8 hPa | 0 mm | - | - | - |
| 1777270342 | 5.56° C | 40% | 1004.8 hPa | 0 mm | - | - | - |
| 1777270041 | 3.89° C | 46% | 1004.9 hPa | 0 mm | - | - | - |
| 1777269741 | 3.33° C | 67% | 1004.7 hPa | 0 mm | - | - | - |
| 1777269440 | 2.22° C | 69% | 1004.8 hPa | 0 mm | - | - | - |
* Rain latest hour (hover to see other rain measurements)
** Current wind speed in m/s (hover to see current wind gust speed)